When you browse on this site, cookies collect data to enhance your experience and personalize the content and advertising you see.
Visit our Privacy Policy to learn more. By continuing to use the site, you agree to this use of cookies and data.
  • In Romania
  • List of Countries
  • For 7 days
  • Water Temperature
  • Satellite Maps
  • Weather Map
  • Weather Widgets
  • user-avatar
    Login

    Hourly Weather Modliszow

    Today, 20 June, Thursday

    Time Temperature Precipitation Wind Pressure Humidity
    00:00 +18°C° 0 mm 2 mps 718 mmHg 83%
    01:00 +18°C° 0 mm 2 mps 718 mmHg 85%
    02:00 +17°C° 0 mm 2 mps 718 mmHg 85%
    03:00 +17°C° 0 mm 2 mps 717 mmHg 85%
    04:00 +17°C° 0 mm 2 mps 717 mmHg 86%
    05:00 +18°C° 0 mm 2 mps 718 mmHg 83%
    06:00 +21°C° 0 mm 1 mps 718 mmHg 80%
    07:00 +22°C° 0 mm 1 mps 718 mmHg 77%
    08:00 +24°C° 0.1 mm 1 mps 719 mmHg 70%
    09:00 +26°C° 0.1 mm 1 mps 719 mmHg 63%
    10:00 +27°C° 0.1 mm 2 mps 719 mmHg 57%
    11:00 +28°C° 0.2 mm 2 mps 719 mmHg 55%
    12:00 +28°C° 0.2 mm 2 mps 719 mmHg 53%
    13:00 +29°C° 0.2 mm 2 mps 719 mmHg 51%
    14:00 +28°C° 0.4 mm 2 mps 719 mmHg 57%
    15:00 +27°C° 0.4 mm 2 mps 718 mmHg 62%
    16:00 +26°C° 0.4 mm 3 mps 718 mmHg 67%
    17:00 +24°C° 1 mm 2 mps 718 mmHg 73%
    18:00 +21°C° 1 mm 2 mps 718 mmHg 79%
    19:00 +20°C° 1 mm 1 mps 718 mmHg 84%
    20:00 +20°C° 0.2 mm 1 mps 719 mmHg 84%
    21:00 +19°C° 0.2 mm 1 mps 719 mmHg 84%
    22:00 +19°C° 0.2 mm 1 mps 719 mmHg 84%
    23:00 +19°C° 0.2 mm 1 mps 720 mmHg 86%

    Tomorrow, 21 June, Friday

    Time Temperature Precipitation Wind Pressure Humidity
    00:00 +18°C° 0.2 mm 2 mps 720 mmHg 88%
    01:00 +17°C° 0.2 mm 2 mps 720 mmHg 90%
    02:00 +17°C° 0 mm 2 mps 720 mmHg 90%
    03:00 +18°C° 0 mm 1 mps 720 mmHg 90%
    04:00 +18°C° 0 mm 1 mps 720 mmHg 90%
    05:00 +17°C° 0 mm 2 mps 721 mmHg 90%
    06:00 +17°C° 0 mm 2 mps 721 mmHg 90%
    07:00 +17°C° 0 mm 2 mps 721 mmHg 89%
    08:00 +18°C° 0.3 mm 2 mps 722 mmHg 89%
    09:00 +19°C° 0.3 mm 1 mps 722 mmHg 88%
    10:00 +19°C° 0.3 mm 1 mps 722 mmHg 88%
    11:00 +21°C° 0.4 mm 1 mps 722 mmHg 83%
    12:00 +22°C° 0.4 mm 1 mps 722 mmHg 79%
    13:00 +23°C° 0.4 mm 1 mps 722 mmHg 74%
    14:00 +23°C° 0.4 mm 2 mps 722 mmHg 74%
    15:00 +23°C° 0.4 mm 2 mps 722 mmHg 74%
    16:00 +22°C° 0.4 mm 3 mps 722 mmHg 74%
    17:00 +22°C° 0.3 mm 3 mps 722 mmHg 78%
    18:00 +21°C° 0.3 mm 3 mps 722 mmHg 82%
    19:00 +20°C° 0.3 mm 2 mps 722 mmHg 85%
    20:00 +18°C° 0.1 mm 2 mps 722 mmHg 88%
    21:00 +17°C° 0.1 mm 2 mps 723 mmHg 90%
    22:00 +16°C° 0.1 mm 2 mps 723 mmHg 93%
    23:00 +15°C° 0 mm 2 mps 723 mmHg 94%

    Day after tomorrow, 22 June, Saturday

    Time Temperature Precipitation Wind Pressure Humidity
    00:00 +15°C° 0 mm 2 mps 723 mmHg 95%
    01:00 +15°C° 0 mm 2 mps 724 mmHg 95%
    02:00 +14°C° 0 mm 2 mps 724 mmHg 96%
    03:00 +14°C° 0 mm 2 mps 724 mmHg 97%
    04:00 +14°C° 0 mm 2 mps 724 mmHg 98%
    05:00 +15°C° 0 mm 2 mps 724 mmHg 93%
    06:00 +14°C° 0 mm 3 mps 725 mmHg 89%
    07:00 +16°C° 0 mm 3 mps 725 mmHg 84%
    08:00 +17°C° 0 mm 3 mps 725 mmHg 80%
    09:00 +18°C° 0 mm 3 mps 725 mmHg 75%
    10:00 +19°C° 0 mm 4 mps 725 mmHg 70%
    11:00 +19°C° 0 mm 4 mps 725 mmHg 68%
    12:00 +20°C° 0 mm 4 mps 725 mmHg 65%
    13:00 +21°C° 0 mm 5 mps 725 mmHg 62%
    14:00 +21°C° 0 mm 5 mps 725 mmHg 63%
    15:00 +21°C° 0 mm 5 mps 724 mmHg 64%
    16:00 +21°C° 0 mm 5 mps 724 mmHg 65%
    17:00 +20°C° 0 mm 5 mps 724 mmHg 69%
    18:00 +19°C° 0 mm 4 mps 724 mmHg 74%
    19:00 +18°C° 0 mm 4 mps 724 mmHg 78%
    20:00 +18°C° 0 mm 4 mps 724 mmHg 80%
    21:00 +17°C° 0 mm 4 mps 724 mmHg 81%
    22:00 +15°C° 0 mm 4 mps 724 mmHg 83%
    23:00 +16°C° 0 mm 3 mps 724 mmHg 85%

    23 June, Sunday

    Time Temperature Precipitation Wind Pressure Humidity
    00:00 +14°C° 0 mm 3 mps 724 mmHg 87%
    01:00 +14°C° 0 mm 3 mps 724 mmHg 88%
    02:00 +14°C° 0.1 mm 2 mps 724 mmHg 88%
    03:00 +14°C° 0.1 mm 2 mps 724 mmHg 88%
    04:00 +14°C° 0.1 mm 2 mps 724 mmHg 87%
    05:00 +13°C° 0.3 mm 2 mps 725 mmHg 88%
    06:00 +13°C° 0.3 mm 2 mps 725 mmHg 90%
    07:00 +13°C° 0.3 mm 2 mps 725 mmHg 91%
    08:00 +14°C° 0 mm 2 mps 725 mmHg 86%
    09:00 +15°C° 0 mm 2 mps 726 mmHg 82%
    10:00 +14°C° 0 mm 3 mps 726 mmHg 77%
    11:00 +17°C° 0 mm 3 mps 726 mmHg 71%
    12:00 +18°C° 0 mm 3 mps 726 mmHg 65%
    13:00 +19°C° 0 mm 4 mps 726 mmHg 59%
    14:00 +20°C° 0 mm 4 mps 726 mmHg 59%
    15:00 +20°C° 0 mm 4 mps 726 mmHg 60%
    16:00 +20°C° 0 mm 4 mps 726 mmHg 60%
    17:00 +20°C° 0 mm 4 mps 726 mmHg 66%
    18:00 +19°C° 0 mm 3 mps 726 mmHg 72%
    19:00 +18°C° 0 mm 3 mps 726 mmHg 78%
    20:00 +17°C° 0 mm 3 mps 726 mmHg 82%
    21:00 +15°C° 0 mm 2 mps 726 mmHg 86%
    22:00 +14°C° 0 mm 2 mps 727 mmHg 91%
    23:00 +13°C° 0 mm 1 mps 727 mmHg 91%

    24 June, Monday

    Time Temperature Precipitation Wind Pressure Humidity
    00:00 +12°C° 0 mm 1 mps 727 mmHg 91%
    01:00 +12°C° 0 mm 1 mps 727 mmHg 92%
    02:00 +12°C° 0 mm 1 mps 727 mmHg 92%
    03:00 +11°C° 0 mm 1 mps 727 mmHg 93%
    04:00 +11°C° 0 mm 1 mps 727 mmHg 94%
    05:00 +13°C° 0 mm 1 mps 727 mmHg 91%
    06:00 +14°C° 0 mm 1 mps 727 mmHg 88%
    07:00 +16°C° 0 mm 2 mps 728 mmHg 85%
    08:00 +18°C° 0 mm 2 mps 728 mmHg 80%
    09:00 +19°C° 0 mm 2 mps 728 mmHg 75%
    10:00 +21°C° 0 mm 3 mps 728 mmHg 69%
    11:00 +21°C° 0 mm 3 mps 728 mmHg 66%
    12:00 +22°C° 0 mm 3 mps 728 mmHg 63%
    13:00 +24°C° 0 mm 3 mps 728 mmHg 60%
    14:00 +24°C° 0 mm 3 mps 728 mmHg 59%
    15:00 +25°C° 0 mm 3 mps 728 mmHg 59%
    16:00 +25°C° 0 mm 3 mps 728 mmHg 59%
    17:00 +24°C° 0 mm 3 mps 728 mmHg 65%
    18:00 +22°C° 0 mm 3 mps 728 mmHg 71%
    19:00 +20°C° 0 mm 2 mps 728 mmHg 77%
    20:00 +19°C° 0 mm 2 mps 728 mmHg 81%
    21:00 +17°C° 0 mm 2 mps 728 mmHg 84%
    22:00 +16°C° 0 mm 1 mps 728 mmHg 88%
    23:00 +15°C° 0 mm 1 mps 728 mmHg 89%

    25 June, Tuesday

    Time Temperature Precipitation Wind Pressure Humidity
    00:00 +15°C° 0 mm 1 mps 728 mmHg 90%
    01:00 +13°C° 0 mm 0 mps 728 mmHg 91%
    02:00 +13°C° 0 mm 0 mps 728 mmHg 92%
    03:00 +13°C° 0 mm 0 mps 728 mmHg 93%
    04:00 +13°C° 0 mm 0 mps 728 mmHg 95%
    05:00 +15°C° 0 mm 1 mps 728 mmHg 91%
    06:00 +18°C° 0 mm 1 mps 728 mmHg 87%
    07:00 +18°C° 0 mm 2 mps 729 mmHg 83%
    08:00 +20°C° 0 mm 2 mps 729 mmHg 79%
    09:00 +21°C° 0 mm 3 mps 729 mmHg 75%
    10:00 +22°C° 0 mm 3 mps 729 mmHg 72%
    11:00 +24°C° 0 mm 3 mps 729 mmHg 70%
    12:00 +25°C° 0 mm 3 mps 729 mmHg 68%
    13:00 +26°C° 0 mm 3 mps 728 mmHg 66%
    14:00 +26°C° 0 mm 3 mps 728 mmHg 66%
    15:00 +26°C° 0 mm 3 mps 728 mmHg 66%
    16:00 +26°C° 0 mm 3 mps 728 mmHg 66%
    17:00 +25°C° 0 mm 2 mps 728 mmHg 71%
    18:00 +25°C° 0 mm 2 mps 727 mmHg 76%
    19:00 +24°C° 0 mm 1 mps 727 mmHg 81%
    20:00 +22°C° 0 mm 1 mps 727 mmHg 84%
    21:00 +21°C° 0 mm 1 mps 727 mmHg 87%
    22:00 +17°C° 0 mm 0 mps 727 mmHg 90%
    23:00 +17°C° 0 mm 0 mps 727 mmHg 91%
    Show more